Terug naar catalogus

FENGYUN 1C DEB

ActiefPO
NORAD 31058·DEBRIS·🇨🇳 China

Gelanceerd May 10, 1999 vanaf Taiyuan Satellite Launch Center

Loading…

Volgende Passages (komende 24 uur)

TLE

VerouderendSource: Space-Track

Epoch: Sep 10, 2026, 06:41 UTC

1 31058U 99025BFC 26253.27872102  .00003885  00000-0  48266-3 0  9992
2 31058  99.5875 259.0669 0086926 349.8694  10.0758 14.80728426 35071

Volg FENGYUN 1C DEB in realtime met AllMySat

Download on the App Store